When you browse on this site, cookies collect data to enhance your experience and personalize the content and advertising you see.
Visit our Privacy Policy to learn more. By continuing to use the site, you agree to this use of cookies and data.
  • Em Portugal
  • Lista de países
  • Para 7 dias
  • Temperatura da água
  • Mapas de satélite
  • Mapa do tempo
  • Widgets de tempo
  • user-avatar
    Iniciar Sessão

    Previsão horária em Makadi Bey

    Hoje, 23 Maio, Quinta-feira

    Tempo Temperatura Precipitação Vento Pressão Humidade
    00:00 +32°C° 0 mm 2 m/s 706 mmHg 9%
    01:00 +32°C° 0 mm 2 m/s 706 mmHg 9%
    02:00 +31°C° 0 mm 2 m/s 706 mmHg 9%
    03:00 +31°C° 0 mm 2 m/s 706 mmHg 10%
    04:00 +31°C° 0 mm 2 m/s 706 mmHg 10%
    05:00 +30°C° 0 mm 2 m/s 706 mmHg 11%
    06:00 +34°C° 0 mm 3 m/s 707 mmHg 10%
    07:00 +36°C° 0 mm 4 m/s 707 mmHg 9%
    08:00 +39°C° 0 mm 5 m/s 708 mmHg 9%
    09:00 +40°C° 0 mm 5 m/s 708 mmHg 9%
    10:00 +41°C° 0 mm 6 m/s 708 mmHg 8%
    11:00 +42°C° 0 mm 6 m/s 708 mmHg 8%
    12:00 +42°C° 0 mm 6 m/s 707 mmHg 8%
    13:00 +42°C° 0 mm 6 m/s 707 mmHg 7%
    14:00 +42°C° 0 mm 5 m/s 707 mmHg 7%
    15:00 +42°C° 0 mm 5 m/s 707 mmHg 7%
    16:00 +42°C° 0 mm 5 m/s 706 mmHg 7%
    17:00 +42°C° 0 mm 5 m/s 706 mmHg 7%
    18:00 +40°C° 0 mm 4 m/s 706 mmHg 8%
    19:00 +37°C° 0 mm 2 m/s 706 mmHg 9%
    20:00 +35°C° 0 mm 1 m/s 706 mmHg 10%
    21:00 +34°C° 0 mm 1 m/s 706 mmHg 10%
    22:00 +34°C° 0 mm 1 m/s 706 mmHg 10%
    23:00 +33°C° 0 mm 1 m/s 706 mmHg 10%

    Amanhã, 24 Maio, Sexta-feira

    Tempo Temperatura Precipitação Vento Pressão Humidade
    00:00 +32°C° 0 mm 1 m/s 705 mmHg 10%
    01:00 +32°C° 0 mm 1 m/s 705 mmHg 11%
    02:00 +31°C° 0 mm 1 m/s 705 mmHg 11%
    03:00 +30°C° 0 mm 1 m/s 705 mmHg 12%
    04:00 +28°C° 0 mm 0 m/s 705 mmHg 12%
    05:00 +27°C° 0 mm 0 m/s 705 mmHg 13%
    06:00 +30°C° 0 mm 0 m/s 705 mmHg 11%
    07:00 +34°C° 0 mm 1 m/s 706 mmHg 9%
    08:00 +37°C° 0 mm 1 m/s 707 mmHg 8%
    09:00 +39°C° 0 mm 2 m/s 707 mmHg 8%
    10:00 +40°C° 0 mm 2 m/s 707 mmHg 7%
    11:00 +43°C° 0 mm 3 m/s 707 mmHg 7%
    12:00 +43°C° 0 mm 4 m/s 707 mmHg 7%
    13:00 +44°C° 0 mm 4 m/s 707 mmHg 7%
    14:00 +45°C° 0 mm 5 m/s 706 mmHg 7%
    15:00 +43°C° 0 mm 4 m/s 706 mmHg 7%
    16:00 +43°C° 0 mm 4 m/s 705 mmHg 8%
    17:00 +42°C° 0 mm 4 m/s 705 mmHg 8%
    18:00 +39°C° 0 mm 3 m/s 705 mmHg 10%
    19:00 +38°C° 0 mm 2 m/s 705 mmHg 11%
    20:00 +36°C° 0 mm 2 m/s 704 mmHg 12%
    21:00 +35°C° 0 mm 1 m/s 705 mmHg 12%
    22:00 +34°C° 0 mm 1 m/s 705 mmHg 12%
    23:00 +34°C° 0 mm 1 m/s 705 mmHg 12%

    Depois de amanhã, 25 Maio, Sábado

    Tempo Temperatura Precipitação Vento Pressão Humidade
    00:00 +33°C° 0 mm 1 m/s 704 mmHg 12%
    01:00 +31°C° 0 mm 0 m/s 704 mmHg 12%
    02:00 +30°C° 0 mm 0 m/s 704 mmHg 12%
    03:00 +29°C° 0 mm 0 m/s 704 mmHg 12%
    04:00 +31°C° 0 mm 1 m/s 704 mmHg 13%
    05:00 +31°C° 0 mm 1 m/s 704 mmHg 14%
    06:00 +32°C° 0 mm 2 m/s 705 mmHg 14%
    07:00 +35°C° 0 mm 2 m/s 706 mmHg 13%
    08:00 +37°C° 0 mm 2 m/s 706 mmHg 13%
    09:00 +38°C° 0 mm 2 m/s 707 mmHg 12%
    10:00 +39°C° 0 mm 3 m/s 707 mmHg 11%
    11:00 +42°C° 0 mm 3 m/s 707 mmHg 10%
    12:00 +42°C° 0 mm 3 m/s 707 mmHg 10%
    13:00 +42°C° 0 mm 3 m/s 706 mmHg 10%
    14:00 +43°C° 0 mm 3 m/s 706 mmHg 10%
    15:00 +42°C° 0 mm 3 m/s 706 mmHg 12%
    16:00 +40°C° 0 mm 3 m/s 705 mmHg 14%
    17:00 +39°C° 0 mm 3 m/s 705 mmHg 15%
    18:00 +38°C° 0 mm 3 m/s 705 mmHg 18%
    19:00 +36°C° 0 mm 2 m/s 705 mmHg 21%
    20:00 +35°C° 0 mm 2 m/s 705 mmHg 24%
    21:00 +34°C° 0 mm 2 m/s 705 mmHg 25%
    22:00 +33°C° 0 mm 1 m/s 705 mmHg 25%
    23:00 +32°C° 0 mm 1 m/s 705 mmHg 26%

    26 Maio, Domingo

    Tempo Temperatura Precipitação Vento Pressão Humidade
    00:00 +32°C° 0 mm 1 m/s 705 mmHg 25%
    01:00 +31°C° 0 mm 1 m/s 705 mmHg 25%
    02:00 +31°C° 0 mm 1 m/s 704 mmHg 24%
    03:00 +30°C° 0 mm 1 m/s 704 mmHg 25%
    04:00 +29°C° 0 mm 1 m/s 704 mmHg 25%
    05:00 +29°C° 0 mm 1 m/s 704 mmHg 25%
    06:00 +31°C° 0 mm 1 m/s 705 mmHg 23%
    07:00 +32°C° 0 mm 1 m/s 705 mmHg 21%
    08:00 +34°C° 0 mm 1 m/s 706 mmHg 18%
    09:00 +36°C° 0 mm 1 m/s 706 mmHg 16%
    10:00 +37°C° 0 mm 1 m/s 706 mmHg 14%
    11:00 +40°C° 0 mm 1 m/s 706 mmHg 12%
    12:00 +40°C° 0 mm 1 m/s 706 mmHg 11%
    13:00 +41°C° 0 mm 2 m/s 705 mmHg 11%
    14:00 +42°C° 0 mm 2 m/s 705 mmHg 10%
    15:00 +41°C° 0 mm 2 m/s 705 mmHg 11%
    16:00 +42°C° 0 mm 3 m/s 704 mmHg 12%
    17:00 +40°C° 0 mm 3 m/s 704 mmHg 13%
    18:00 +39°C° 0 mm 2 m/s 704 mmHg 14%
    19:00 +38°C° 0 mm 2 m/s 704 mmHg 16%
    20:00 +35°C° 0 mm 1 m/s 705 mmHg 18%
    21:00 +35°C° 0 mm 1 m/s 705 mmHg 19%
    22:00 +34°C° 0 mm 1 m/s 705 mmHg 20%
    23:00 +31°C° 0 mm 0 m/s 705 mmHg 20%

    27 Maio, Segunda-feira

    Tempo Temperatura Precipitação Vento Pressão Humidade
    00:00 +30°C° 0 mm 0 m/s 705 mmHg 21%
    01:00 +30°C° 0 mm 0 m/s 704 mmHg 21%
    02:00 +29°C° 0 mm 0 m/s 704 mmHg 21%
    03:00 +29°C° 0 mm 0 m/s 704 mmHg 22%
    04:00 +28°C° 0 mm 0 m/s 704 mmHg 23%
    05:00 +27°C° 0 mm 0 m/s 704 mmHg 24%
    06:00 +29°C° 0 mm 0 m/s 704 mmHg 22%
    07:00 +33°C° 0 mm 1 m/s 705 mmHg 19%
    08:00 +35°C° 0 mm 1 m/s 705 mmHg 16%
    09:00 +37°C° 0 mm 1 m/s 705 mmHg 14%
    10:00 +40°C° 0 mm 2 m/s 706 mmHg 12%
    11:00 +42°C° 0 mm 3 m/s 706 mmHg 10%
    12:00 +43°C° 0 mm 3 m/s 705 mmHg 9%
    13:00 +43°C° 0 mm 4 m/s 705 mmHg 8%
    14:00 +44°C° 0 mm 4 m/s 705 mmHg 7%
    15:00 +44°C° 0 mm 4 m/s 704 mmHg 8%
    16:00 +43°C° 0 mm 4 m/s 704 mmHg 8%
    17:00 +42°C° 0 mm 3 m/s 704 mmHg 8%
    18:00 +40°C° 0 mm 3 m/s 704 mmHg 10%
    19:00 +38°C° 0 mm 2 m/s 704 mmHg 12%
    20:00 +37°C° 0 mm 2 m/s 705 mmHg 14%
    21:00 +35°C° 0 mm 1 m/s 705 mmHg 15%
    22:00 +34°C° 0 mm 1 m/s 705 mmHg 16%
    23:00 +34°C° 0 mm 1 m/s 705 mmHg 17%

    28 Maio, Terça-feira

    Tempo Temperatura Precipitação Vento Pressão Humidade
    00:00 +33°C° 0 mm 1 m/s 704 mmHg 17%
    01:00 +32°C° 0 mm 1 m/s 704 mmHg 17%
    02:00 +32°C° 0 mm 1 m/s 704 mmHg 17%
    03:00 +31°C° 0 mm 1 m/s 704 mmHg 17%
    04:00 +31°C° 0 mm 1 m/s 704 mmHg 17%
    05:00 +30°C° 0 mm 1 m/s 704 mmHg 17%
    06:00 +32°C° 0 mm 1 m/s 704 mmHg 15%
    07:00 +34°C° 0 mm 1 m/s 705 mmHg 13%
    08:00 +36°C° 0 mm 1 m/s 705 mmHg 11%
    09:00 +39°C° 0 mm 1 m/s 705 mmHg 10%
    10:00 +40°C° 0 mm 1 m/s 705 mmHg 9%
    11:00 +41°C° 0 mm 2 m/s 706 mmHg 8%
    12:00 +42°C° 0 mm 2 m/s 705 mmHg 8%
    13:00 +42°C° 0 mm 2 m/s 705 mmHg 8%
    14:00 +43°C° 0 mm 2 m/s 705 mmHg 7%
    15:00 +42°C° 0 mm 2 m/s 704 mmHg 8%
    16:00 +43°C° 0 mm 3 m/s 704 mmHg 8%
    17:00 +42°C° 0 mm 3 m/s 704 mmHg 9%
    18:00 +40°C° 0 mm 3 m/s 704 mmHg 10%
    19:00 +38°C° 0 mm 2 m/s 704 mmHg 12%
    20:00 +37°C° 0 mm 2 m/s 704 mmHg 14%
    21:00 +36°C° 0 mm 2 m/s 704 mmHg 14%
    22:00 +35°C° 0 mm 2 m/s 704 mmHg 15%
    23:00 +34°C° 0 mm 1 m/s 704 mmHg 15%
    Mostrar mais